TimeCDT,TemperatureF,Dew PointF,Humidity,Sea Level PressureIn,VisibilityMPH,Wind Direction,Wind SpeedMPH,Gust SpeedMPH,PrecipitationIn,Events,Conditions,WindDirDegrees,DateUTC
12:15 AM,48.2,46.4,93,29.82,5.0,ESE,11.5,18.4,N/A,,Clear,120,2012-03-31 05:15:00
12:35 AM,48.2,46.4,93,29.81,5.0,SE,15.0,-,N/A,,Clear,130,2012-03-31 05:35:00
12:55 AM,48.2,46.4,93,29.81,5.0,SE,13.8,-,N/A,,Clear,130,2012-03-31 05:55:00
1:15 AM,48.2,46.4,93,29.81,5.0,SE,12.7,-,N/A,,Clear,130,2012-03-31 06:15:00
1:35 AM,46.4,46.4,100,29.82,5.0,SE,11.5,-,N/A,,Clear,130,2012-03-31 06:35:00
1:55 AM,46.4,46.4,100,29.83,4.0,SE,10.4,-,N/A,,Clear,130,2012-03-31 06:55:00
2:15 AM,46.4,46.4,100,29.83,4.0,SE,13.8,-,N/A,,Mostly Cloudy,130,2012-03-31 07:15:00
2:35 AM,46.4,46.4,100,29.82,3.0,SE,15.0,23.0,N/A,,Overcast,140,2012-03-31 07:35:00
2:55 AM,46.4,46.4,100,29.82,4.0,SE,15.0,-,N/A,,Overcast,130,2012-03-31 07:55:00
3:15 AM,46.4,46.4,100,29.82,5.0,SE,17.3,-,N/A,,Overcast,130,2012-03-31 08:15:00
3:35 AM,46.4,46.4,100,29.82,5.0,SE,17.3,24.2,N/A,,Overcast,130,2012-03-31 08:35:00
3:55 AM,46.4,46.4,100,29.81,5.0,SE,15.0,24.2,N/A,,Overcast,130,2012-03-31 08:55:00
4:15 AM,46.4,46.4,100,29.81,4.0,ESE,16.1,20.7,N/A,,Overcast,120,2012-03-31 09:15:00
4:35 AM,46.4,46.4,100,29.80,4.0,SE,13.8,-,N/A,,Overcast,130,2012-03-31 09:35:00
4:55 AM,46.4,46.4,100,29.80,2.5,SE,13.8,20.7,N/A,,Overcast,130,2012-03-31 09:55:00
5:15 AM,46.4,46.4,100,29.81,2.0,SE,13.8,-,N/A,,Overcast,130,2012-03-31 10:15:00
5:35 AM,46.4,46.4,100,29.80,1.5,SE,13.8,-,N/A,,Overcast,140,2012-03-31 10:35:00
5:55 AM,46.4,46.4,100,29.80,1.5,SE,13.8,20.7,N/A,,Overcast,140,2012-03-31 10:55:00
6:15 AM,46.4,46.4,100,29.80,1.5,SE,16.1,23.0,N/A,,Overcast,140,2012-03-31 11:15:00
6:35 AM,46.4,46.4,100,29.81,1.2,SE,13.8,-,N/A,,Overcast,140,2012-03-31 11:35:00
6:55 AM,46.4,46.4,100,29.82,0.8,SE,13.8,-,N/A,,Overcast,140,2012-03-31 11:55:00
7:15 AM,46.4,46.4,100,29.83,1.0,SSE,17.3,-,N/A,,Overcast,150,2012-03-31 12:15:00
7:35 AM,46.4,46.4,100,29.83,0.5,SE,13.8,-,N/A,Fog,Fog,140,2012-03-31 12:35:00
7:55 AM,46.4,46.4,100,29.84,0.2,SSE,13.8,-,N/A,Fog,Fog,150,2012-03-31 12:55:00
8:15 AM,46.4,46.4,100,29.84,0.2,SSE,13.8,-,N/A,Rain,Light Rain,150,2012-03-31 13:15:00
8:35 AM,46.4,46.4,100,29.83,0.2,SE,15.0,21.9,N/A,Rain,Light Rain,140,2012-03-31 13:35:00
8:55 AM,46.4,46.4,100,29.82,0.5,SE,19.6,-,N/A,Rain,Light Rain,140,2012-03-31 13:55:00
9:15 AM,48.2,48.2,100,29.82,0.5,SE,13.8,20.7,N/A,Rain,Light Rain,140,2012-03-31 14:15:00
9:35 AM,48.2,48.2,100,29.82,0.5,SSE,17.3,27.6,N/A,,Light Drizzle,150,2012-03-31 14:35:00
9:55 AM,48.2,48.2,100,29.82,0.5,SE,18.4,25.3,N/A,Fog,Fog,140,2012-03-31 14:55:00
10:15 AM,48.2,48.2,100,29.82,0.5,SE,13.8,19.6,N/A,Fog,Fog,130,2012-03-31 15:15:00
10:35 AM,48.2,48.2,100,29.81,0.5,SE,17.3,20.7,N/A,Fog,Fog,140,2012-03-31 15:35:00
10:55 AM,48.2,48.2,100,29.81,0.8,SE,16.1,23.0,N/A,,Overcast,130,2012-03-31 15:55:00
11:15 AM,50.0,50.0,100,29.81,0.8,SE,18.4,23.0,N/A,,Overcast,140,2012-03-31 16:15:00
11:35 AM,50.0,50.0,100,29.80,0.8,SE,18.4,23.0,N/A,,Overcast,140,2012-03-31 16:35:00
11:55 AM,51.8,51.8,100,29.80,0.8,SSE,18.4,24.2,N/A,,Overcast,150,2012-03-31 16:55:00
12:15 PM,51.8,51.8,100,29.79,0.8,SSE,18.4,-,N/A,,Overcast,150,2012-03-31 17:15:00
12:35 PM,51.8,51.8,100,29.79,0.8,SSE,16.1,-,N/A,,Overcast,150,2012-03-31 17:35:00
12:55 PM,51.8,51.8,100,29.78,1.0,SSE,11.5,-,N/A,,Overcast,150,2012-03-31 17:55:00
1:15 PM,53.6,53.6,100,29.77,1.2,SSE,16.1,21.9,N/A,,Overcast,150,2012-03-31 18:15:00
1:35 PM,53.6,53.6,100,29.76,1.8,SSE,16.1,23.0,N/A,,Overcast,150,2012-03-31 18:35:00
1:55 PM,53.6,53.6,100,29.75,2.0,SSE,12.7,-,N/A,,Overcast,150,2012-03-31 18:55:00
2:15 PM,55.4,53.6,94,29.75,2.0,SSE,16.1,-,N/A,,Overcast,150,2012-03-31 19:15:00
2:35 PM,55.4,53.6,94,29.73,2.5,SSE,17.3,-,N/A,,Overcast,150,2012-03-31 19:35:00
2:55 PM,55.4,53.6,94,29.73,3.0,SSE,17.3,-,N/A,,Overcast,150,2012-03-31 19:55:00
3:15 PM,55.4,53.6,94,29.73,3.0,SSE,17.3,-,N/A,,Overcast,150,2012-03-31 20:15:00
3:35 PM,57.2,53.6,88,29.72,3.0,SSE,18.4,24.2,N/A,,Overcast,160,2012-03-31 20:35:00
3:55 PM,57.2,53.6,88,29.72,3.0,SSE,15.0,20.7,N/A,,Overcast,150,2012-03-31 20:55:00
4:15 PM,57.2,55.4,94,29.72,3.0,SSE,15.0,-,N/A,,Overcast,150,2012-03-31 21:15:00
4:35 PM,59.0,55.4,88,29.70,3.0,SSE,13.8,-,N/A,,Overcast,150,2012-03-31 21:35:00
4:55 PM,60.8,55.4,82,29.69,3.0,SE,13.8,-,N/A,,Haze,130,2012-03-31 21:55:00
5:15 PM,60.8,55.4,82,29.70,4.0,SE,15.0,-,N/A,,Haze,140,2012-03-31 22:15:00
5:35 PM,60.8,55.4,82,29.70,4.0,SE,10.4,-,N/A,,Haze,140,2012-03-31 22:35:00
5:55 PM,60.8,55.4,82,29.70,4.0,ESE,10.4,-,N/A,,Haze,120,2012-03-31 22:55:00
6:15 PM,60.8,55.4,82,29.68,4.0,SE,11.5,-,N/A,,Haze,130,2012-03-31 23:15:00
6:35 PM,60.8,55.4,82,29.67,4.0,SE,12.7,-,N/A,,Haze,130,2012-03-31 23:35:00
6:55 PM,60.8,55.4,82,29.67,4.0,ESE,10.4,-,N/A,,Clear,120,2012-03-31 23:55:00
7:15 PM,57.2,55.4,94,29.68,2.5,ESE,10.4,-,N/A,,Clear,110,2012-04-01 00:15:00
7:35 PM,55.4,55.4,100,29.68,2.5,ESE,11.5,-,N/A,,Clear,110,2012-04-01 00:35:00
7:55 PM,55.4,53.6,94,29.69,3.0,ESE,11.5,-,N/A,,Clear,110,2012-04-01 00:55:00
8:15 PM,53.6,53.6,100,29.69,3.0,ESE,12.7,-,N/A,,Clear,110,2012-04-01 01:15:00
8:35 PM,53.6,53.6,100,29.70,3.0,East,11.5,-,N/A,,Clear,100,2012-04-01 01:35:00
8:55 PM,53.6,53.6,100,29.69,3.0,East,12.7,-,N/A,,Clear,100,2012-04-01 01:55:00
9:15 PM,53.6,53.6,100,29.69,3.0,East,11.5,-,N/A,,Clear,100,2012-04-01 02:15:00
9:35 PM,53.6,53.6,100,29.69,3.0,East,11.5,16.1,N/A,,Clear,100,2012-04-01 02:35:00
9:55 PM,53.6,53.6,100,29.69,3.0,ESE,12.7,-,N/A,,Clear,110,2012-04-01 02:55:00
10:15 PM,51.8,51.8,100,29.68,3.0,East,11.5,-,N/A,,Clear,100,2012-04-01 03:15:00
10:35 PM,51.8,51.8,100,29.68,3.0,ESE,15.0,-,N/A,,Clear,110,2012-04-01 03:35:00
11:15 PM,51.8,50.0,94,29.67,4.0,ESE,13.8,18.4,N/A,,Clear,110,2012-04-01 04:15:00
11:35 PM,51.8,48.2,88,29.66,4.0,ESE,15.0,20.7,N/A,,Clear,110,2012-04-01 04:35:00
11:55 PM,51.8,48.2,88,29.66,4.0,ESE,12.7,-,N/A,,Clear,110,2012-04-01 04:55:00